LRAR Weather Reports


Display with metric or nautical units.
time (UTC)temp
F
wind
direction
speed
MPH
gust
MPH
rain 1hr
in
rain 24hr
in
rain mn
in
humidity
%
barometer
mb
20260507100339 63 180 10.0 0.0 0.00 0.00 0.00 94 1016.0
20260507094839 63 180 8.0 0.0 0.00 0.00 0.00 94 1016.0
20260507093339 63 180 8.0 0.0 0.00 0.00 0.00 94 1016.0
20260507091840 61 170 6.0 0.0 0.00 0.00 0.00 100 1015.0
20260507090338 61 170 6.0 0.0 0.00 0.00 0.00 100 1015.0
20260507084838 61 190 8.0 0.0 0.00 0.00 0.00 94 1015.0
20260507083339 61 190 8.0 0.0 0.00 0.00 0.00 94 1015.0
20260507081838 61 210 8.0 0.0 0.00 0.00 0.00 94 1015.0
20260507080339 61 210 8.0 0.0 0.00 0.00 0.00 94 1015.0
20260507074839 59 220 8.0 0.0 0.00 0.00 0.00 100 1015.0
20260507073338 59 220 8.0 0.0 0.00 0.00 0.00 100 1015.0
20260507071838 61 230 10.0 0.0 0.00 0.00 0.00 88 1015.0
20260507070338 61 230 10.0 0.0 0.00 0.00 0.00 88 1015.0
20260507064838 63 230 7.0 0.0 0.00 0.00 0.00 77 1014.0
20260507063338 63 230 7.0 0.0 0.00 0.00 0.00 77 1014.0
20260507061848 61 240 5.0 0.0 0.00 0.00 0.00 77 1014.0
20260507060338 61 240 5.0 0.0 0.00 0.00 0.00 77 1014.0
20260507054838 61 240 3.0 0.0 0.00 0.00 0.00 72 1014.0
20260507053346 61 240 3.0 0.0 0.00 0.00 0.00 72 1014.0
20260507051839 59 250 3.0 0.0 0.00 0.00 0.00 77 1013.0
20260507050338 59 250 3.0 0.0 0.00 0.00 0.00 77 1013.0
20260507044835 59 320 5.0 0.0 0.00 0.00 0.00 77 1013.0
20260507043338 59 320 5.0 0.0 0.00 0.00 0.00 77 1013.0
20260507041838 57 240 3.0 0.0 0.00 0.00 0.00 82 1012.0
20260507040338 57 240 3.0 0.0 0.00 0.00 0.00 82 1012.0
20260507034835 57 1.0 0.0 0.00 0.00 0.00 77 1012.0
20260507033338 57 1.0 0.0 0.00 0.00 0.00 77 1012.0
20260507031838 57 0 0.0 0.0 0.00 0.00 0.00 77 1012.0
20260507030338 57 0 0.0 0.0 0.00 0.00 0.00 77 1012.0
20260507024835 57 2.0 0.0 0.00 0.00 0.00 77 1012.0
20260507023338 57 2.0 0.0 0.00 0.00 0.00 77 1012.0
20260507021838 57 270 3.0 0.0 0.00 0.00 0.00 77 1012.0
20260507020338 57 270 3.0 0.0 0.00 0.00 0.00 77 1012.0
20260507014838 59 140 5.0 0.0 0.00 0.00 0.00 72 1011.0
20260507013338 59 140 5.0 0.0 0.00 0.00 0.00 72 1011.0
20260507011838 59 130 5.0 0.0 0.00 0.00 0.00 68 1011.0
20260507010338 59 130 5.0 0.0 0.00 0.00 0.00 68 1011.0
20260507004838 61 1.0 0.0 0.00 0.00 0.00 63 1011.0
20260507003339 61 1.0 0.0 0.00 0.00 0.00 63 1011.0
20260507001838 61 170 6.0 0.0 0.00 0.00 0.00 63 1011.0
20260507000338 61 170 6.0 0.0 0.00 0.00 0.00 63 1011.0
20260506234838 63 160 8.0 0.0 0.00 0.00 0.00 59 1011.0
20260506233338 63 160 8.0 0.0 0.00 0.00 0.00 59 1011.0
20260506231839 59 140 9.0 0.0 0.00 0.00 0.00 68 1011.0
20260506230338 59 140 9.0 0.0 0.00 0.00 0.00 68 1011.0
20260506224834 59 140 9.0 0.0 0.00 0.00 0.00 72 1011.0
20260506223338 59 140 9.0 0.0 0.00 0.00 0.00 72 1011.0
20260506221838 59 140 9.0 0.0 0.00 0.00 0.00 72 1011.0
20260506220337 59 140 9.0 0.0 0.00 0.00 0.00 72 1011.0
20260506214854 59 140 8.0 0.0 0.00 0.00 0.00 72 1011.0
20260506213338 59 140 8.0 0.0 0.00 0.00 0.00 72 1011.0
20260506211835 59 140 8.0 0.0 0.00 0.00 0.00 72 1011.0
20260506210338 59 140 8.0 0.0 0.00 0.00 0.00 72 1011.0
20260506204839 61 140 6.0 0.0 0.00 0.00 0.00 68 1011.0
20260506203338 61 140 6.0 0.0 0.00 0.00 0.00 68 1011.0
20260506201835 61 130 6.0 0.0 0.00 0.00 0.00 68 1011.0
20260506200338 61 130 6.0 0.0 0.00 0.00 0.00 68 1011.0
20260506194857 63 140 6.0 0.0 0.00 0.00 0.00 64 1011.0
20260506193402 63 140 6.0 0.0 0.00 0.00 0.00 64 1011.0
20260506191839 66 150 6.0 0.0 0.00 0.00 0.00 56 1011.0
20260506190338 66 150 6.0 0.0 0.00 0.00 0.00 56 1011.0
20260506184844 66 160 7.0 0.0 0.00 0.00 0.00 56 1011.0
20260506183338 66 160 7.0 0.0 0.00 0.00 0.00 56 1011.0
20260506181838 68 150 6.0 0.0 0.00 0.00 0.00 53 1010.0
20260506180339 68 150 6.0 0.0 0.00 0.00 0.00 53 1010.0
20260506174839 72 160 5.0 0.0 0.00 0.00 0.00 47 1010.0
20260506173338 72 160 5.0 0.0 0.00 0.00 0.00 47 1010.0
20260506171838 73 160 5.0 0.0 0.00 0.00 0.00 44 1010.0
20260506170338 73 160 5.0 0.0 0.00 0.00 0.00 44 1010.0
20260506164838 75 160 5.0 0.0 0.00 0.00 0.00 39 1010.0
20260506163338 75 160 5.0 0.0 0.00 0.00 0.00 39 1010.0
20260506161838 75 190 7.0 0.0 0.00 0.00 0.00 39 1011.0
20260506160339 75 190 7.0 0.0 0.00 0.00 0.00 39 1011.0
20260506154839 77 200 7.0 0.0 0.00 0.00 0.00 36 1011.0
20260506153338 77 200 7.0 0.0 0.00 0.00 0.00 36 1011.0
20260506151838 77 210 8.0 0.0 0.00 0.00 0.00 36 1011.0
20260506150344 77 210 8.0 0.0 0.00 0.00 0.00 36 1011.0
20260506144838 77 210 8.0 0.0 0.00 0.00 0.00 36 1011.0
20260506143350 77 210 8.0 0.0 0.00 0.00 0.00 36 1011.0
20260506141838 79 200 7.0 0.0 0.00 0.00 0.00 37 1012.0
20260506140457 79 200 7.0 0.0 0.00 0.00 0.00 37 1012.0
20260506134903 77 200 9.0 0.0 0.00 0.00 0.00 39 1012.0
20260506133338 77 200 9.0 0.0 0.00 0.00 0.00 39 1012.0
20260506131838 77 210 9.0 0.0 0.00 0.00 0.00 39 1012.0
20260506130347 77 210 9.0 0.0 0.00 0.00 0.00 39 1012.0
20260506124839 77 210 11.0 0.0 0.00 0.00 0.00 39 1012.0
20260506123338 77 210 11.0 0.0 0.00 0.00 0.00 39 1012.0
20260506121839 77 200 11.0 0.0 0.00 0.00 0.00 39 1013.0
20260506120338 77 200 11.0 0.0 0.00 0.00 0.00 39 1013.0
20260506114838 77 210 9.0 0.0 0.00 0.00 0.00 42 1013.0
20260506113339 77 210 9.0 0.0 0.00 0.00 0.00 42 1013.0
20260506111838 75 200 6.0 0.0 0.00 0.00 0.00 41 1013.0
20260506110338 75 200 6.0 0.0 0.00 0.00 0.00 41 1013.0
20260506104838 75 170 8.0 0.0 0.00 0.00 0.00 41 1013.0
20260506103338 75 170 8.0 0.0 0.00 0.00 0.00 41 1013.0
20260506101839 75 190 10.0 0.0 0.00 0.00 0.00 44 1014.0